User: anonymous   Login
Location: Axtheid
(49.6213°N, 11.8205°E)
Time: 13:55:25
(UTC+00:00)
Language:

COSMOS 2406 - Orbit

View from above orbital plane
View from above orbital plane
View from above satellite
View from above satellite

Ground track
Ground track

The orbit data is extracted from the following two-line orbital elements,

1 28352U 04021A   21101.69778570 -.00000145  00000-0 -53789-4 0  9999
2 28352  70.9991  92.7418 0014353 158.8307 201.3411 14.11679983867604
Epoch (UTC): 11 April 2021 16:44:48
Eccentricity: 0.0014353
inclination: 70.9991°
perigee height: 843 km
apogee height: 864 km
right ascension of ascending node: 92.7418°
argument of perigee: 158.8307°
revolutions per day: 14.11679983
mean anomaly at epoch: 201.3411°
orbit number at epoch: 86760

The dashed part of the orbit path shows where the satellite is in the earth's shadow,  

DLR